Flag for United Kingdom Weather past 2 weeks in Cambridge, England, United Kingdom

Now
63 °F

Passing clouds.


Feels Like: 63 °F
Forecast: 57 / 68 °F
Wind: 2 mph from South

Location: Cambridge Airport

Current Time: Sep 30, 2014 at 9:53:46 PM

Latest Report: Sep 30, 2014 at 7:50 PM


Visibility: N/A

Pressure: 30.21 "Hg

Humidity: 77%

Dew point: 55 °F

Location of CambridgeLocation

Historic Weather in Cambridge — Graph

°F

Cambridge temperature yesterday

Maximum temperature yesterday: 66 °F (at 12:20 PM)
Minimum temperature yesterday: 50 °F (at 5:20 AM)
Average temperature yesterday: 60 °F

Past Weeks' High & Low Weather Summary

 TemperatureHumidityPressure
High77 °F (Sep 18, 3:50 PM)100% (Sep 16, 5:50 AM)30.33 "Hg (Sep 16, 5:50 AM)
Low43 °F (Sep 25, 5:20 AM)46% (Sep 23, 1:20 PM)29.80 "Hg (Sep 18, 2:20 PM)
Average62 °F77%30.07 "Hg
* Reported Sep 16 5:50 AM — Sep 30 7:50 PM, Cambridge, Weather by CustomWeather, © 2014

Note: Actual official high and low records may vary slightly from our data, if they occured in-between our weather recording intervals... More about our weather records

Advertising

Cambridge weather history for previous 24 hours

 ConditionsComfort  
Time TempWeatherWind HumidityBarometerVisibility
7:50 PM
Sep 30
63 °FPassing clouds.2 mph77%30.21 "HgN/A
7:20 PM63 °FPassing clouds.2 mph77%30.18 "HgN/A
6:50 PM64 °FPassing clouds.2 mph68%30.18 "HgN/A
5:50 PM68 °FPassing clouds.3 mph64%30.18 "HgN/A
5:20 PM66 °FPassing clouds.5 mph64%30.18 "HgN/A
4:50 PM68 °FPassing clouds.7 mph64%30.18 "HgN/A
4:20 PM70 °FPassing clouds.8 mph57%30.18 "HgN/A
3:50 PM70 °FPassing clouds.10 mph57%30.21 "HgN/A
3:20 PM70 °FPassing clouds.9 mph57%30.21 "HgN/A
2:50 PM68 °FPassing clouds.9 mph64%30.21 "HgN/A
2:20 PM68 °FPassing clouds.9 mph64%30.21 "HgN/A
1:50 PM68 °FPassing clouds.7 mph69%30.21 "HgN/A
12:50 PM64 °FScattered clouds.8 mph78%30.21 "HgN/A
12:20 PM64 °FScattered clouds.10 mph78%30.21 "HgN/A
11:50 AM63 °FPartly sunny.9 mph88%30.21 "HgN/A
11:20 AM63 °FBroken clouds.9 mph83%30.21 "HgN/A
10:50 AM61 °FPartly sunny.9 mph88%30.21 "HgN/A
10:20 AM63 °FScattered clouds.9 mph88%30.21 "HgN/A
9:50 AM61 °FPassing clouds.7 mph88%30.21 "Hg4 mi
9:20 AM59 °FClear.6 mph88%30.21 "Hg4 mi
8:50 AM57 °FFog.5 mph94%30.21 "Hg3 mi
8:20 AM55 °FFog.6 mph94%30.18 "Hg3 mi
7:20 AM52 °FFog.5 mph100%30.18 "Hg2 mi
6:50 AM54 °FFog.3 mph94%30.18 "Hg2 mi
6:20 AM52 °FFog.5 mph94%30.18 "Hg2 mi
5:50 AM50 °FFog.5 mph100%30.15 "Hg3 mi
5:20 AM52 °FClear.6 mph94%30.15 "Hg4 mi
Weather by CustomWeather, © 2014

See weather overviewHow to use our weather pages